Time,TemperatureF,DewpointF,PressureIn,WindDirection,WindDirectionDegrees,WindSpeedMPH,WindSpeedGustMPH,Humidity,HourlyPrecipIn,Conditions,Clouds,dailyrainin,SoftwareType,DateUTC
2013-06-22 00:05:00,65.1,64.5,30.10,SW,225,0.0,-999.0,98,-99.99,,,0.00,Acu-Link.com,2013-06-22 04:05:00,
2013-06-22 00:20:00,64.6,64.0,30.10,WNW,292,0.0,-999.0,98,-99.99,,,0.00,Acu-Link.com,2013-06-22 04:20:00,
2013-06-22 00:35:00,64.2,63.6,30.11,NW,315,0.0,-999.0,98,-99.99,,,0.00,Acu-Link.com,2013-06-22 04:35:00,
2013-06-22 00:50:00,63.9,63.3,30.10,WNW,292,0.0,-999.0,98,-99.99,,,0.00,Acu-Link.com,2013-06-22 04:50:00,
2013-06-22 01:05:00,63.5,62.9,30.10,WNW,292,0.0,-999.0,98,-99.99,,,0.00,Acu-Link.com,2013-06-22 05:05:00,
2013-06-22 01:20:00,63.1,62.5,30.10,SE,135,0.0,-999.0,98,-99.99,,,0.00,Acu-Link.com,2013-06-22 05:20:00,
2013-06-22 01:35:00,63.0,62.4,30.10,SE,135,0.0,-999.0,98,-99.99,,,0.00,Acu-Link.com,2013-06-22 05:35:00,
2013-06-22 01:50:00,62.8,62.2,30.09,SE,135,0.0,-999.0,98,-99.99,,,0.00,Acu-Link.com,2013-06-22 05:50:00,
2013-06-22 02:05:00,62.6,62.0,30.09,SE,135,0.0,-999.0,98,-99.99,,,0.00,Acu-Link.com,2013-06-22 06:05:00,
2013-06-22 02:20:00,62.4,61.8,30.09,SE,135,0.0,-999.0,98,-99.99,,,0.00,Acu-Link.com,2013-06-22 06:20:00,
2013-06-22 02:36:00,62.2,61.6,30.09,SE,135,0.0,-999.0,98,-99.99,,,0.00,Acu-Link.com,2013-06-22 06:36:00,
2013-06-22 02:51:00,62.2,61.6,30.08,SE,135,0.0,-999.0,98,-99.99,,,0.00,Acu-Link.com,2013-06-22 06:51:00,
2013-06-22 03:06:00,61.9,61.3,30.08,SE,135,0.0,-999.0,98,-99.99,,,0.00,Acu-Link.com,2013-06-22 07:06:00,
2013-06-22 03:21:00,61.7,61.1,30.08,SE,135,0.0,-999.0,98,-99.99,,,0.00,Acu-Link.com,2013-06-22 07:21:00,
2013-06-22 03:36:00,61.7,61.1,30.08,SE,135,0.0,-999.0,98,-99.99,,,0.00,Acu-Link.com,2013-06-22 07:36:00,
2013-06-22 03:51:00,61.5,60.9,30.08,SE,135,0.0,-999.0,98,-99.99,,,0.00,Acu-Link.com,2013-06-22 07:51:00,
2013-06-22 04:07:00,61.5,60.9,30.08,SE,135,0.0,-999.0,98,-99.99,,,0.00,Acu-Link.com,2013-06-22 08:07:00,
2013-06-22 04:22:00,61.5,60.9,30.08,SE,135,0.0,-999.0,98,-99.99,,,0.00,Acu-Link.com,2013-06-22 08:22:00,
2013-06-22 04:38:00,61.3,60.7,30.08,SE,135,0.0,-999.0,98,-99.99,,,0.00,Acu-Link.com,2013-06-22 08:38:00,
2013-06-22 04:53:00,61.2,60.6,30.08,SE,135,0.0,-999.0,98,-99.99,,,0.00,Acu-Link.com,2013-06-22 08:53:00,
2013-06-22 05:08:00,61.0,60.4,30.08,SE,135,0.0,-999.0,98,-99.99,,,0.00,Acu-Link.com,2013-06-22 09:08:00,
2013-06-22 05:23:00,60.8,60.2,30.09,SE,135,0.0,-999.0,98,-99.99,,,0.00,Acu-Link.com,2013-06-22 09:23:00,
2013-06-22 05:38:00,60.4,59.8,30.10,East,90,0.0,-999.0,98,-99.99,,,0.00,Acu-Link.com,2013-06-22 09:38:00,
2013-06-22 05:53:00,60.3,59.7,30.10,ENE,67,0.0,-999.0,98,-99.99,,,0.00,Acu-Link.com,2013-06-22 09:53:00,
2013-06-22 06:08:00,59.9,59.3,30.10,West,270,0.0,-999.0,98,-99.99,,,0.00,Acu-Link.com,2013-06-22 10:08:00,
2013-06-22 06:23:00,59.7,59.1,30.11,WNW,292,0.0,-999.0,98,-99.99,,,0.00,Acu-Link.com,2013-06-22 10:23:00,
2013-06-22 06:39:00,59.7,59.1,30.11,West,270,0.0,-999.0,98,-99.99,,,0.00,Acu-Link.com,2013-06-22 10:39:00,
2013-06-22 06:54:00,60.4,59.8,30.11,NE,45,0.0,-999.0,98,-99.99,,,0.00,Acu-Link.com,2013-06-22 10:54:00,
2013-06-22 07:09:00,63.0,62.4,30.11,East,90,0.0,-999.0,98,-99.99,,,0.00,Acu-Link.com,2013-06-22 11:09:00,
2013-06-22 07:24:00,66.0,65.4,30.12,East,90,0.0,-999.0,98,-99.99,,,0.00,Acu-Link.com,2013-06-22 11:24:00,
2013-06-22 07:39:00,69.1,68.5,30.12,East,90,0.0,-999.0,98,-99.99,,,0.00,Acu-Link.com,2013-06-22 11:39:00,
2013-06-22 07:54:00,72.1,70.0,30.11,SE,135,0.0,-999.0,93,-99.99,,,0.00,Acu-Link.com,2013-06-22 11:54:00,
2013-06-22 08:10:00,74.5,69.3,30.11,ENE,67,3.7,-999.0,84,-99.99,,,0.00,Acu-Link.com,2013-06-22 12:10:00,
2013-06-22 08:25:00,75.7,69.4,30.11,East,90,2.7,-999.0,81,-99.99,,,0.00,Acu-Link.com,2013-06-22 12:25:00,
2013-06-22 08:40:00,78.6,70.0,30.11,WNW,292,0.0,-999.0,75,-99.99,,,0.00,Acu-Link.com,2013-06-22 12:40:00,
2013-06-22 08:55:00,80.6,69.5,30.12,ESE,112,2.7,-999.0,69,-99.99,,,0.00,Acu-Link.com,2013-06-22 12:55:00,
2013-06-22 09:10:00,81.0,68.5,30.12,ESE,112,3.2,-999.0,66,-99.99,,,0.00,Acu-Link.com,2013-06-22 13:10:00,
2013-06-22 09:25:00,83.5,70.0,30.12,SE,135,2.2,-999.0,64,-99.99,,,0.00,Acu-Link.com,2013-06-22 13:25:00,
2013-06-22 09:40:00,83.5,69.1,30.12,ESE,112,3.7,-999.0,62,-99.99,,,0.00,Acu-Link.com,2013-06-22 13:40:00,
2013-06-22 09:56:00,82.9,69.4,30.12,NNE,22,2.2,-999.0,64,-99.99,,,0.00,Acu-Link.com,2013-06-22 13:56:00,
2013-06-22 10:11:00,83.8,69.8,30.12,South,180,5.3,-999.0,63,-99.99,,,0.00,Acu-Link.com,2013-06-22 14:11:00,
2013-06-22 10:26:00,84.6,69.6,30.13,SE,135,4.2,-999.0,61,-99.99,,,0.00,Acu-Link.com,2013-06-22 14:26:00,
2013-06-22 10:41:00,84.0,70.5,30.13,ENE,67,5.3,-999.0,64,-99.99,,,0.00,Acu-Link.com,2013-06-22 14:41:00,
2013-06-22 10:56:00,84.4,69.9,30.12,East,90,1.7,-999.0,62,-99.99,,,0.00,Acu-Link.com,2013-06-22 14:56:00,
2013-06-22 11:11:00,86.5,68.9,30.12,East,90,4.7,-999.0,56,-99.99,,,0.00,Acu-Link.com,2013-06-22 15:11:00,
2013-06-22 11:26:00,86.5,68.4,30.13,NE,45,4.2,-999.0,55,-99.99,,,0.00,Acu-Link.com,2013-06-22 15:26:00,
2013-06-22 11:41:00,88.0,68.7,30.12,ENE,67,3.7,-999.0,53,-99.99,,,0.00,Acu-Link.com,2013-06-22 15:41:00,
2013-06-22 11:57:00,88.2,67.8,30.12,East,90,2.7,-999.0,51,-99.99,,,0.00,Acu-Link.com,2013-06-22 15:57:00,
2013-06-22 12:12:00,89.2,68.1,30.12,ESE,112,4.2,-999.0,50,-99.99,,,0.00,Acu-Link.com,2013-06-22 16:12:00,
2013-06-22 12:27:00,89.2,67.5,30.12,ESE,112,2.7,-999.0,49,-99.99,,,0.00,Acu-Link.com,2013-06-22 16:27:00,
2013-06-22 12:42:00,90.0,67.6,30.11,East,90,2.2,-999.0,48,-99.99,,,0.00,Acu-Link.com,2013-06-22 16:42:00,
2013-06-22 12:57:00,92.1,68.3,30.11,NE,45,3.2,-999.0,46,-99.99,,,0.00,Acu-Link.com,2013-06-22 16:57:00,
2013-06-22 13:12:00,92.7,69.5,30.11,ENE,67,3.7,-999.0,47,-99.99,,,0.00,Acu-Link.com,2013-06-22 17:12:00,
2013-06-22 13:27:00,90.9,68.5,30.11,SW,225,0.0,-999.0,48,-99.99,,,0.00,Acu-Link.com,2013-06-22 17:27:00,
2013-06-22 13:43:00,92.8,68.9,30.10,WNW,292,0.0,-999.0,46,-99.99,,,0.00,Acu-Link.com,2013-06-22 17:43:00,
2013-06-22 13:58:00,93.4,70.7,30.09,WSW,247,1.7,-999.0,48,-99.99,,,0.00,Acu-Link.com,2013-06-22 17:58:00,
2013-06-22 14:13:00,93.0,68.5,30.08,NW,315,0.0,-999.0,45,-99.99,,,0.00,Acu-Link.com,2013-06-22 18:13:00,
2013-06-22 14:28:00,93.0,66.5,30.07,SW,225,2.2,-999.0,42,-99.99,,,0.00,Acu-Link.com,2013-06-22 18:28:00,
2013-06-22 14:43:00,92.3,66.5,30.06,ESE,112,4.2,-999.0,43,-99.99,,,0.00,Acu-Link.com,2013-06-22 18:43:00,
2013-06-22 14:58:00,92.3,65.8,30.06,SE,135,2.2,-999.0,42,-99.99,,,0.00,Acu-Link.com,2013-06-22 18:58:00,
2013-06-22 15:13:00,92.5,66.7,30.06,ESE,112,2.7,-999.0,43,-99.99,,,0.00,Acu-Link.com,2013-06-22 19:13:00,
2013-06-22 15:28:00,92.5,66.0,30.06,ESE,112,2.2,-999.0,42,-99.99,,,0.00,Acu-Link.com,2013-06-22 19:28:00,
2013-06-22 15:43:00,93.4,66.8,30.04,East,90,3.7,-999.0,42,-99.99,,,0.00,Acu-Link.com,2013-06-22 19:43:00,
2013-06-22 15:59:00,93.4,67.5,30.03,NW,315,0.0,-999.0,43,-99.99,,,0.00,Acu-Link.com,2013-06-22 19:59:00,
2013-06-22 16:14:00,93.9,64.4,30.03,East,90,0.0,-999.0,38,-99.99,,,0.00,Acu-Link.com,2013-06-22 20:14:00,
2013-06-22 16:29:00,92.3,62.2,30.02,South,180,2.7,-999.0,37,-99.99,,,0.00,Acu-Link.com,2013-06-22 20:29:00,
2013-06-22 16:44:00,92.7,63.3,30.01,SE,135,3.2,-999.0,38,-99.99,,,0.00,Acu-Link.com,2013-06-22 20:44:00,
2013-06-22 16:59:00,94.3,65.5,30.01,ESE,112,2.2,-999.0,39,-99.99,,,0.00,Acu-Link.com,2013-06-22 20:59:00,
2013-06-22 17:14:00,92.8,62.7,30.01,SSW,202,0.0,-999.0,37,-99.99,,,0.00,Acu-Link.com,2013-06-22 21:14:00,
2013-06-22 17:29:00,95.9,66.2,30.01,ESE,112,0.0,-999.0,38,-99.99,,,0.00,Acu-Link.com,2013-06-22 21:29:00,
2013-06-22 17:44:00,94.3,65.5,30.02,West,270,0.0,-999.0,39,-99.99,,,0.00,Acu-Link.com,2013-06-22 21:44:00,
2013-06-22 17:59:00,91.6,64.5,30.00,ESE,112,0.0,-999.0,41,-99.99,,,0.00,Acu-Link.com,2013-06-22 21:59:00,
2013-06-22 18:15:00,86.5,63.8,29.99,SW,225,0.0,-999.0,47,-99.99,,,0.00,Acu-Link.com,2013-06-22 22:15:00,
2013-06-22 18:30:00,84.7,63.4,29.99,ESE,112,0.0,-999.0,49,-99.99,,,0.00,Acu-Link.com,2013-06-22 22:30:00,
2013-06-22 18:45:00,82.8,65.5,29.99,West,270,0.0,-999.0,56,-99.99,,,0.00,Acu-Link.com,2013-06-22 22:45:00,
2013-06-22 19:00:00,81.5,65.8,29.99,WNW,292,0.0,-999.0,59,-99.99,,,0.00,Acu-Link.com,2013-06-22 23:00:00,
2013-06-22 19:15:00,80.2,68.2,29.99,NNW,337,0.0,-999.0,67,-99.99,,,0.00,Acu-Link.com,2013-06-22 23:15:00,
2013-06-22 19:30:00,79.0,67.9,29.99,NNE,22,0.0,-999.0,69,-99.99,,,0.00,Acu-Link.com,2013-06-22 23:30:00,
2013-06-22 19:45:00,77.9,68.9,29.98,NNE,22,0.0,-999.0,74,-99.99,,,0.00,Acu-Link.com,2013-06-22 23:45:00,
2013-06-22 20:00:00,77.0,69.6,29.99,NNE,22,0.0,-999.0,78,-99.99,,,0.00,Acu-Link.com,2013-06-23 00:00:00,
2013-06-22 20:15:00,75.7,69.4,29.99,NNE,22,0.0,-999.0,81,-99.99,,,0.00,Acu-Link.com,2013-06-23 00:15:00,
2013-06-22 20:31:00,74.7,68.8,30.00,NNE,22,0.0,-999.0,82,-99.99,,,0.00,Acu-Link.com,2013-06-23 00:31:00,
2013-06-22 20:46:00,73.2,68.8,30.00,NNE,22,0.0,-999.0,86,-99.99,,,0.00,Acu-Link.com,2013-06-23 00:46:00,
2013-06-22 21:01:00,72.1,69.0,30.01,NNE,22,0.0,-999.0,90,-99.99,,,0.00,Acu-Link.com,2013-06-23 01:01:00,
2013-06-22 21:16:00,71.1,68.7,30.02,NNE,22,0.0,-999.0,92,-99.99,,,0.00,Acu-Link.com,2013-06-23 01:16:00,
2013-06-22 21:31:00,70.7,68.6,30.02,NNE,22,0.0,-999.0,93,-99.99,,,0.00,Acu-Link.com,2013-06-23 01:31:00,
2013-06-22 21:46:00,70.3,68.5,30.03,NNE,22,0.0,-999.0,94,-99.99,,,0.00,Acu-Link.com,2013-06-23 01:46:00,
2013-06-22 22:01:00,69.8,68.3,30.03,NNE,22,0.0,-999.0,95,-99.99,,,0.00,Acu-Link.com,2013-06-23 02:01:00,
2013-06-22 22:16:00,69.3,68.1,30.04,NNE,22,0.0,-999.0,96,-99.99,,,0.00,Acu-Link.com,2013-06-23 02:16:00,
2013-06-22 22:31:00,68.5,67.3,30.04,NNE,22,0.0,-999.0,96,-99.99,,,0.00,Acu-Link.com,2013-06-23 02:31:00,
2013-06-22 22:46:00,68.4,67.8,30.05,NNE,22,0.0,-999.0,98,-99.99,,,0.00,Acu-Link.com,2013-06-23 02:46:00,
2013-06-22 23:02:00,68.4,67.8,30.06,NNE,22,0.0,-999.0,98,-99.99,,,0.00,Acu-Link.com,2013-06-23 03:02:00,
2013-06-22 23:17:00,68.2,67.6,30.06,NNE,22,0.0,-999.0,98,-99.99,,,0.00,Acu-Link.com,2013-06-23 03:17:00,
2013-06-22 23:32:00,67.8,67.2,30.05,NNE,22,0.0,-999.0,98,-99.99,,,0.00,Acu-Link.com,2013-06-23 03:32:00,
2013-06-22 23:47:00,67.5,66.9,30.06,NNE,22,0.0,-999.0,98,-99.99,,,0.00,Acu-Link.com,2013-06-23 03:47:00,